WWA3311 KJAX-KFLL

Flight info

Callsign WWA3311
Flight time 1h 1m
Altitude 25000
Route EXBOX2 EXBOX PRMUS CUUDA3
Aircraft E55P/M-SBDFGHJ2RWY/LB2

Departure

Time 2026-05-04 00:08
Airport Jacksonville International Airport (KJAX)

Arrival

Time 2026-05-04 01:09
Airport Fort Lauderdale Hollywood International Airport (KFLL)
Time Latitude Longitude Altitude Speed Heading
2026-05-03 23:58 30.49772 -81.68159 21 ft 0 kts 250°
2026-05-04 00:03 30.49771 -81.68161 21 ft 1 kts 250°
2026-05-04 00:03 30.49772 -81.68183 21 ft 4 kts 291°
2026-05-04 00:03 30.49801 -81.68211 21 ft 6 kts 339°
2026-05-04 00:04 30.49805 -81.68272 21 ft 9 kts 250°
2026-05-04 00:04 30.49839 -81.68330 21 ft 11 kts 343°
2026-05-04 00:04 30.49861 -81.68411 21 ft 13 kts 270°
2026-05-04 00:04 30.49903 -81.68504 21 ft 14 kts 252°
2026-05-04 00:05 30.49868 -81.68624 21 ft 17 kts 251°
2026-05-04 00:05 30.49825 -81.68767 21 ft 20 kts 252°
2026-05-04 00:05 30.49771 -81.68941 21 ft 22 kts 249°
2026-05-04 00:05 30.49714 -81.69123 21 ft 23 kts 252°
2026-05-04 00:06 30.49660 -81.69305 21 ft 23 kts 247°
2026-05-04 00:06 30.49601 -81.69491 21 ft 23 kts 248°
2026-05-04 00:06 30.49544 -81.69675 21 ft 23 kts 251°
2026-05-04 00:06 30.49489 -81.69853 20 ft 21 kts 252°
2026-05-04 00:07 30.49530 -81.69950 18 ft 7 kts 343°
2026-05-04 00:07 30.49589 -81.69968 18 ft 10 kts 340°
2026-05-04 00:07 30.49650 -81.69889 19 ft 25 kts 71°
2026-05-04 00:07 30.49816 -81.69353 21 ft 107 kts 71°
2026-05-04 00:08 30.50114 -81.68439 584 ft 116 kts 71°
2026-05-04 00:08 30.50430 -81.67561 1163 ft 134 kts 66°
2026-05-04 00:08 30.50849 -81.66515 1913 ft 149 kts 68°
2026-05-04 00:08 30.50962 -81.65343 2807 ft 155 kts 112°
2026-05-04 00:09 30.50139 -81.64481 3612 ft 171 kts 145°
2026-05-04 00:09 30.49055 -81.63682 4293 ft 192 kts 148°
2026-05-04 00:09 30.47974 -81.62974 5377 ft 181 kts 149°
2026-05-04 00:09 30.46623 -81.62032 5603 ft 225 kts 149°
2026-05-04 00:10 30.45227 -81.61060 6245 ft 243 kts 150°
2026-05-04 00:10 30.43726 -81.59989 6886 ft 261 kts 150°
2026-05-04 00:10 30.42042 -81.58719 7565 ft 279 kts 144°
2026-05-04 00:10 30.40484 -81.57169 8223 ft 295 kts 140°
2026-05-04 00:11 30.39006 -81.55635 8899 ft 305 kts 139°
2026-05-04 00:11 30.37371 -81.53913 9795 ft 309 kts 140°
2026-05-04 00:11 30.35685 -81.52144 10584 ft 317 kts 141°
2026-05-04 00:11 30.34018 -81.50391 11211 ft 328 kts 141°
2026-05-04 00:12 30.32274 -81.48561 11847 ft 339 kts 141°
2026-05-04 00:12 30.30371 -81.46568 12517 ft 349 kts 142°
2026-05-04 00:12 30.28574 -81.44676 13132 ft 357 kts 142°
2026-05-04 00:12 30.26671 -81.42685 13766 ft 364 kts 142°
2026-05-04 00:13 30.24620 -81.40535 14442 ft 371 kts 142°
2026-05-04 00:13 30.22681 -81.38509 15068 ft 377 kts 143°
2026-05-04 00:13 30.20647 -81.36378 15716 ft 381 kts 143°
2026-05-04 00:13 30.18555 -81.34190 16361 ft 386 kts 144°
2026-05-04 00:14 30.16498 -81.32037 16853 ft 393 kts 144°
2026-05-04 00:14 30.14408 -81.29858 17348 ft 398 kts 144°
2026-05-04 00:14 30.12272 -81.27625 17847 ft 403 kts 144°
2026-05-04 00:14 30.09984 -81.25243 18383 ft 408 kts 144°
2026-05-04 00:15 30.07954 -81.23126 18850 ft 411 kts 145°
2026-05-04 00:15 30.05753 -81.20827 19347 ft 413 kts 145°
2026-05-04 00:15 30.03263 -81.18908 19828 ft 398 kts 166°
2026-05-04 00:15 30.00559 -81.18332 20347 ft 383 kts 183°
2026-05-04 00:16 29.98099 -81.18061 20783 ft 387 kts 181°
2026-05-04 00:16 29.95313 -81.17779 21285 ft 387 kts 182°
2026-05-04 00:16 29.92550 -81.17486 21776 ft 388 kts 183°
2026-05-04 00:16 29.89822 -81.17199 22262 ft 389 kts 182°
2026-05-04 00:17 29.88897 -81.17061 22423 ft 394 kts 178°
2026-05-04 00:17 29.87168 -81.16511 22743 ft 403 kts 169°
2026-05-04 00:17 29.84733 -81.15316 23200 ft 411 kts 161°
2026-05-04 00:17 29.82290 -81.13614 23697 ft 420 kts 153°
2026-05-04 00:18 29.79871 -81.11638 24213 ft 416 kts 156°
2026-05-04 00:18 29.77602 -81.10252 24680 ft 406 kts 164°
2026-05-04 00:18 29.74883 -81.08865 24949 ft 412 kts 165°
2026-05-04 00:18 29.72162 -81.07521 24982 ft 423 kts 165°
2026-05-04 00:19 29.69277 -81.06097 24983 ft 423 kts 166°
2026-05-04 00:19 29.66384 -81.04675 24977 ft 419 kts 166°
2026-05-04 00:19 29.63718 -81.03370 24980 ft 416 kts 166°
2026-05-04 00:19 29.60962 -81.02023 24975 ft 413 kts 166°
2026-05-04 00:20 29.58178 -81.00657 24979 ft 411 kts 166°
2026-05-04 00:20 29.55600 -80.99400 24973 ft 408 kts 166°
2026-05-04 00:20 29.52858 -80.98061 24975 ft 406 kts 166°
2026-05-04 00:20 29.50080 -80.96704 24974 ft 404 kts 166°
2026-05-04 00:21 29.47279 -80.95341 24971 ft 403 kts 166°
2026-05-04 00:21 29.44803 -80.94128 24979 ft 402 kts 166°
2026-05-04 00:21 29.42160 -80.92844 24979 ft 401 kts 166°
2026-05-04 00:21 29.39435 -80.91515 24977 ft 400 kts 166°
2026-05-04 00:22 29.36774 -80.90220 24976 ft 399 kts 166°
2026-05-04 00:22 29.34246 -80.88989 24976 ft 399 kts 166°
2026-05-04 00:22 29.31583 -80.87696 24976 ft 399 kts 166°
2026-05-04 00:22 29.28845 -80.86368 24973 ft 398 kts 166°
2026-05-04 00:23 29.26325 -80.85142 24976 ft 398 kts 166°
2026-05-04 00:23 29.23708 -80.83869 24976 ft 397 kts 166°
2026-05-04 00:23 29.20984 -80.82551 24981 ft 397 kts 166°
2026-05-04 00:23 29.18396 -80.81297 24973 ft 397 kts 166°
2026-05-04 00:24 29.15813 -80.80039 24976 ft 397 kts 166°
2026-05-04 00:24 29.13157 -80.78759 24976 ft 396 kts 166°
2026-05-04 00:24 29.10504 -80.77470 24973 ft 396 kts 166°
2026-05-04 00:24 29.07937 -80.76232 24966 ft 396 kts 166°
2026-05-04 00:25 29.05325 -80.74966 24971 ft 396 kts 166°
2026-05-04 00:25 29.02652 -80.73673 24973 ft 396 kts 166°
2026-05-04 00:25 29.00066 -80.72429 24978 ft 396 kts 166°
2026-05-04 00:25 28.97449 -80.71162 24965 ft 396 kts 166°
2026-05-04 00:26 28.94800 -80.69955 24970 ft 393 kts 168°
2026-05-04 00:26 28.92209 -80.68794 24969 ft 394 kts 167°
2026-05-04 00:26 28.89712 -80.67683 24965 ft 394 kts 167°
2026-05-04 00:26 28.88448 -80.67115 24969 ft 394 kts 167°
2026-05-04 00:27 28.85769 -80.65917 24964 ft 394 kts 168°
2026-05-04 00:27 28.83545 -80.64919 24963 ft 394 kts 167°
2026-05-04 00:27 28.80812 -80.63699 24962 ft 394 kts 168°
2026-05-04 00:27 28.78098 -80.62492 24967 ft 394 kts 167°
2026-05-04 00:28 28.75497 -80.61326 24965 ft 395 kts 167°
2026-05-04 00:28 28.72882 -80.60159 24961 ft 395 kts 167°
2026-05-04 00:28 28.70070 -80.58907 24958 ft 396 kts 167°
2026-05-04 00:28 28.67398 -80.57719 24958 ft 396 kts 167°
2026-05-04 00:29 28.64897 -80.56599 24949 ft 401 kts 167°
2026-05-04 00:29 28.62120 -80.55369 24955 ft 411 kts 167°
2026-05-04 00:29 28.59148 -80.54047 24955 ft 420 kts 167°
2026-05-04 00:29 28.56244 -80.52757 24948 ft 428 kts 167°
2026-05-04 00:30 28.53485 -80.51527 25049 ft 431 kts 167°
2026-05-04 00:30 28.50558 -80.50226 25067 ft 437 kts 166°
2026-05-04 00:30 28.47536 -80.48884 25068 ft 442 kts 166°
2026-05-04 00:30 28.44651 -80.47602 25070 ft 446 kts 167°
2026-05-04 00:31 28.41703 -80.46299 25069 ft 450 kts 166°
2026-05-04 00:31 28.38553 -80.44904 25066 ft 453 kts 166°
2026-05-04 00:31 28.35637 -80.43609 25064 ft 455 kts 166°
2026-05-04 00:31 28.32545 -80.42239 25063 ft 456 kts 166°
2026-05-04 00:32 28.29357 -80.40829 25063 ft 458 kts 166°
2026-05-04 00:32 28.26418 -80.39530 25062 ft 457 kts 166°
2026-05-04 00:32 28.23303 -80.38152 25059 ft 448 kts 166°
2026-05-04 00:32 28.20227 -80.36794 25057 ft 444 kts 166°
2026-05-04 00:33 28.17280 -80.35488 25059 ft 441 kts 166°
2026-05-04 00:33 28.12022 -80.33173 25048 ft 436 kts 167°
2026-05-04 00:33 28.09045 -80.31866 25041 ft 432 kts 168°
2026-05-04 00:34 28.06434 -80.30861 25041 ft 428 kts 170°
2026-05-04 00:34 28.03421 -80.29678 25042 ft 426 kts 170°
2026-05-04 00:34 28.00427 -80.28513 25044 ft 428 kts 169°
2026-05-04 00:34 27.97488 -80.27370 25036 ft 428 kts 169°
2026-05-04 00:35 27.94845 -80.26331 25039 ft 429 kts 169°
2026-05-04 00:35 27.91740 -80.25122 25041 ft 431 kts 169°
2026-05-04 00:35 27.89317 -80.24178 25041 ft 431 kts 169°
2026-05-04 00:35 27.87159 -80.23334 25044 ft 432 kts 169°
2026-05-04 00:36 27.84485 -80.22293 25047 ft 432 kts 169°
2026-05-04 00:36 27.81667 -80.21193 25048 ft 433 kts 169°
2026-05-04 00:36 27.78875 -80.20110 25047 ft 434 kts 169°
2026-05-04 00:36 27.75878 -80.18939 25046 ft 434 kts 169°
2026-05-04 00:37 27.73163 -80.17886 25047 ft 435 kts 169°
2026-05-04 00:37 27.70002 -80.16654 25040 ft 435 kts 169°
2026-05-04 00:37 27.66894 -80.15448 25045 ft 435 kts 169°
2026-05-04 00:37 27.63983 -80.14313 25044 ft 436 kts 169°
2026-05-04 00:38 27.61182 -80.13225 25044 ft 437 kts 168°
2026-05-04 00:38 27.58141 -80.11955 25047 ft 438 kts 168°
2026-05-04 00:38 27.55039 -80.10671 25041 ft 438 kts 167°
2026-05-04 00:38 27.52171 -80.09491 25036 ft 439 kts 167°
2026-05-04 00:39 27.49273 -80.08295 25039 ft 434 kts 168°
2026-05-04 00:39 27.46247 -80.07050 25031 ft 427 kts 168°
2026-05-04 00:39 27.43481 -80.05911 25034 ft 423 kts 168°
2026-05-04 00:39 27.40598 -80.04725 25032 ft 418 kts 168°
2026-05-04 00:40 27.37822 -80.03593 25034 ft 413 kts 169°
2026-05-04 00:40 27.35045 -80.02744 25036 ft 404 kts 174°
2026-05-04 00:40 27.32249 -80.01921 25035 ft 403 kts 173°
2026-05-04 00:40 27.29339 -80.01048 25034 ft 401 kts 173°
2026-05-04 00:41 27.26575 -80.00205 25034 ft 397 kts 173°
2026-05-04 00:41 27.23920 -79.99326 24850 ft 400 kts 169°
2026-05-04 00:41 27.21072 -79.98274 24272 ft 397 kts 170°
2026-05-04 00:41 27.18259 -79.97254 23708 ft 394 kts 170°
2026-05-04 00:42 27.15806 -79.96366 23212 ft 391 kts 170°
2026-05-04 00:42 27.13095 -79.95385 22665 ft 387 kts 170°
2026-05-04 00:42 27.10418 -79.94419 22134 ft 384 kts 170°
2026-05-04 00:42 27.07930 -79.93527 21639 ft 380 kts 170°
2026-05-04 00:43 27.05457 -79.92590 21130 ft 380 kts 167°
2026-05-04 00:43 27.02697 -79.91458 20566 ft 376 kts 168°
2026-05-04 00:43 27.00100 -79.90406 20024 ft 373 kts 167°
2026-05-04 00:43 26.97811 -79.89486 19554 ft 370 kts 167°
2026-05-04 00:44 26.95243 -79.88448 19010 ft 365 kts 167°
2026-05-04 00:44 26.92602 -79.87382 18450 ft 361 kts 167°
2026-05-04 00:44 26.90197 -79.86413 17925 ft 357 kts 167°
2026-05-04 00:44 26.88926 -79.85899 17653 ft 354 kts 167°
2026-05-04 00:45 26.86542 -79.84941 17135 ft 351 kts 167°
2026-05-04 00:45 26.84329 -79.84053 16662 ft 348 kts 166°
2026-05-04 00:45 26.81856 -79.83057 16128 ft 344 kts 166°
2026-05-04 00:45 26.79720 -79.82195 16013 ft 331 kts 166°
2026-05-04 00:46 26.77480 -79.81291 15730 ft 331 kts 166°
2026-05-04 00:46 26.75213 -79.80386 15055 ft 333 kts 166°
2026-05-04 00:46 26.73051 -79.79521 14423 ft 331 kts 165°
2026-05-04 00:46 26.70806 -79.78686 13902 ft 319 kts 173°
2026-05-04 00:47 26.68592 -79.78883 13411 ft 296 kts 204°
2026-05-04 00:47 26.66683 -79.79673 13113 ft 287 kts 202°
2026-05-04 00:47 26.64735 -79.80447 12767 ft 284 kts 204°
2026-05-04 00:47 26.62754 -79.81251 12407 ft 284 kts 204°
2026-05-04 00:48 26.60871 -79.82018 12145 ft 286 kts 204°
2026-05-04 00:48 26.58997 -79.82780 11933 ft 286 kts 204°
2026-05-04 00:48 26.56903 -79.83633 11688 ft 286 kts 204°
2026-05-04 00:48 26.54978 -79.84430 11425 ft 287 kts 206°
2026-05-04 00:49 26.53122 -79.85320 11054 ft 290 kts 206°
2026-05-04 00:49 26.51173 -79.86231 10646 ft 281 kts 206°
2026-05-04 00:49 26.49249 -79.87134 10216 ft 270 kts 206°
2026-05-04 00:49 26.47493 -79.87962 9814 ft 262 kts 207°
2026-05-04 00:50 26.45767 -79.88776 9418 ft 265 kts 207°
2026-05-04 00:50 26.43914 -79.89648 9006 ft 268 kts 206°
2026-05-04 00:50 26.42089 -79.90505 8603 ft 268 kts 206°
2026-05-04 00:50 26.40399 -79.91296 8223 ft 267 kts 206°
2026-05-04 00:51 26.38593 -79.92144 8013 ft 258 kts 207°
2026-05-04 00:51 26.36946 -79.93154 7980 ft 241 kts 214°
2026-05-04 00:51 26.35516 -79.94071 7973 ft 230 kts 213°
2026-05-04 00:51 26.34230 -79.94898 7973 ft 220 kts 214°
2026-05-04 00:52 26.32756 -79.95848 7981 ft 224 kts 213°
2026-05-04 00:52 26.31276 -79.96800 7712 ft 240 kts 213°
2026-05-04 00:52 26.29834 -79.97728 7437 ft 253 kts 213°
2026-05-04 00:52 26.28257 -79.98739 7071 ft 257 kts 213°
2026-05-04 00:53 26.26569 -79.99821 6682 ft 260 kts 212°
2026-05-04 00:53 26.25030 -80.00809 6321 ft 256 kts 212°
2026-05-04 00:53 26.23564 -80.01753 5971 ft 253 kts 212°
2026-05-04 00:53 26.21920 -80.02809 5571 ft 250 kts 212°
2026-05-04 00:54 26.20351 -80.03814 5188 ft 248 kts 212°
2026-05-04 00:54 26.18878 -80.04765 5007 ft 238 kts 213°
2026-05-04 00:54 26.17826 -80.06049 4989 ft 218 kts 249°
2026-05-04 00:54 26.17341 -80.07672 4984 ft 204 kts 251°
2026-05-04 00:55 26.16890 -80.09123 4977 ft 195 kts 252°
2026-05-04 00:55 26.16461 -80.10541 4988 ft 196 kts 252°
2026-05-04 00:55 26.16018 -80.12009 4991 ft 198 kts 252°
2026-05-04 00:55 26.15625 -80.13314 4991 ft 199 kts 252°
2026-05-04 00:56 26.15190 -80.14756 4989 ft 201 kts 252°
2026-05-04 00:56 26.15010 -80.16334 4998 ft 200 kts 272°
2026-05-04 00:56 26.15033 -80.17976 4993 ft 202 kts 270°
2026-05-04 00:56 26.15038 -80.19502 4992 ft 203 kts 270°
2026-05-04 00:57 26.15046 -80.21125 4989 ft 204 kts 270°
2026-05-04 00:57 26.15053 -80.22768 4989 ft 205 kts 270°
2026-05-04 00:57 26.15060 -80.24228 4991 ft 205 kts 270°
2026-05-04 00:57 26.15067 -80.25871 4989 ft 205 kts 270°
2026-05-04 00:58 26.15073 -80.27502 4991 ft 204 kts 270°
2026-05-04 00:58 26.15085 -80.29116 4990 ft 205 kts 271°
2026-05-04 00:58 26.15103 -80.30701 4988 ft 206 kts 271°
2026-05-04 00:58 26.15122 -80.32323 4989 ft 206 kts 271°
2026-05-04 00:59 26.15140 -80.33939 4990 ft 207 kts 271°
2026-05-04 00:59 26.15153 -80.35541 4988 ft 205 kts 270°
2026-05-04 00:59 26.15168 -80.37140 4988 ft 203 kts 271°
2026-05-04 00:59 26.15182 -80.38734 4989 ft 200 kts 271°
2026-05-04 01:00 26.15199 -80.40310 4986 ft 199 kts 271°
2026-05-04 01:00 26.15221 -80.41873 4986 ft 197 kts 271°
2026-05-04 01:00 26.15242 -80.43302 4988 ft 196 kts 271°
2026-05-04 01:00 26.15264 -80.44866 4988 ft 194 kts 271°
2026-05-04 01:01 26.15282 -80.46413 4989 ft 193 kts 269°
2026-05-04 01:01 26.14801 -80.47809 4994 ft 193 kts 228°
2026-05-04 01:01 26.13820 -80.48798 4992 ft 193 kts 224°
2026-05-04 01:01 26.12735 -80.49859 4989 ft 192 kts 224°
2026-05-04 01:02 26.11500 -80.50500 4988 ft 196 kts 185°
2026-05-04 01:02 26.10129 -80.50367 4993 ft 197 kts 177°
2026-05-04 01:02 26.08813 -80.49847 4984 ft 202 kts 141°
2026-05-04 01:02 26.08076 -80.48474 5005 ft 205 kts 110°
2026-05-04 01:03 26.07917 -80.46886 5003 ft 210 kts 90°
2026-05-04 01:03 26.07932 -80.45140 4990 ft 214 kts 90°
2026-05-04 01:03 26.07948 -80.43443 4898 ft 206 kts 90°
2026-05-04 01:03 26.07962 -80.41889 4742 ft 200 kts 90°
2026-05-04 01:04 26.07966 -80.40271 4533 ft 197 kts 92°
2026-05-04 01:04 26.07900 -80.38702 4321 ft 192 kts 93°
2026-05-04 01:04 26.07838 -80.37288 4091 ft 182 kts 93°
2026-05-04 01:04 26.07772 -80.35865 3957 ft 167 kts 93°
2026-05-04 01:05 26.07715 -80.34444 3578 ft 177 kts 90°
2026-05-04 01:05 26.07694 -80.33133 3332 ft 170 kts 91°
2026-05-04 01:05 26.07660 -80.31920 2811 ft 172 kts 89°
2026-05-04 01:05 26.07648 -80.30531 2579 ft 150 kts 89°
2026-05-04 01:06 26.07614 -80.29337 2357 ft 142 kts 88°
2026-05-04 01:06 26.07644 -80.28292 2170 ft 135 kts 83°
2026-05-04 01:06 26.07688 -80.27267 1944 ft 134 kts 86°
2026-05-04 01:06 26.07676 -80.26145 1725 ft 131 kts 85°
2026-05-04 01:07 26.07677 -80.25128 1554 ft 125 kts 85°
2026-05-04 01:07 26.07700 -80.24222 1402 ft 123 kts 85°
2026-05-04 01:07 26.07723 -80.23225 1198 ft 124 kts 85°
2026-05-04 01:07 26.07707 -80.22189 1002 ft 125 kts 88°
2026-05-04 01:08 26.07691 -80.21231 816 ft 125 kts 88°
2026-05-04 01:08 26.07700 -80.20277 645 ft 123 kts 88°
2026-05-04 01:08 26.07700 -80.19301 501 ft 120 kts 86°
2026-05-04 01:08 26.07701 -80.18371 354 ft 117 kts 88°
2026-05-04 01:09 26.07696 -80.17484 211 ft 114 kts 88°
2026-05-04 01:09 26.07693 -80.16596 75 ft 110 kts 89°
2026-05-04 01:09 26.07690 -80.15741 8 ft 91 kts 89°
2026-05-04 01:09 26.07689 -80.15245 7 ft 36 kts 91°
2026-05-04 01:10 26.07747 -80.15117 7 ft 17 kts
2026-05-04 01:10 26.07811 -80.15167 7 ft 11 kts 272°
2026-05-04 01:10 26.07868 -80.15211 7 ft 12 kts 344°
2026-05-04 01:10 26.07955 -80.15218 7 ft 12 kts 347°
2026-05-04 01:11 26.08015 -80.15219 7 ft 0 kts 91°